Marathon, FL

5:14 AM EDT on August 25, 2016 (GMT -0400)
Florida Keys Marathon

Weather History for KMTH - August, 2014

Change the Weather History Date:

Saturday, August 16, 2014

  Actual Average Record
Temperature  
Mean Temperature 88 °F 85 °F  
Max Temperature 93 °F 91 °F 96 °F (1997)
Min Temperature 82 °F 80 °F 72 °F (2003)
Degree Days  
Heating Degree Days 0 0  
Month to date heating degree days 0 0  
Since 1 June heating degree days 0 0  
Since 1 July heating degree days 0 0  
Cooling Degree Days 23 20  
Month to date cooling degree days 341 332  
Year to date cooling degree days 3360 3089  
Since 1 June cooling degree days 1575 1546  
Growing Degree Days 36 (Base 50)    
Moisture  
Dew Point 77 °F    
Average Humidity 75    
Maximum Humidity 85    
Minimum Humidity 64    
Precipitation  
Precipitation T in 0.20 in 1.96 in (2003)
Month to date precipitation 5.14 3.28  
Year to date precipitation 18.16 25.11  
Snow  
Snow 0.00 in - - ()
Month to date snowfall 0.0  
Since 1 June snowfall 0.0  
Since 1 July snowfall 0.0  
Snow Depth 0.00 in    
Sea Level Pressure  
Sea Level Pressure 30.07 in    
Wind  
Wind Speed 5 mph (ESE)    
Max Wind Speed 14 mph    
Max Gust Speed 20 mph    
Visibility 10 miles    
Events      
T = Trace of Precipitation, MM = Missing Value Source: NWS Daily Summary

Daily Weather History Graph

Daily Weather History Graph

Search for Another Location

Airport or City:

Trip Planner

Search our weather history database for the weather conditions in past years. The results will help you decide how hot, cold, wet, or windy it might be!

Date:

Astronomy

Aug. 16, 2014 Rise Set
Actual Time 6:58 AM EDT 7:57 PM EDT
Civil Twilight 6:35 AM EDT 8:21 PM EDT
Nautical Twilight 6:07 AM EDT 8:49 PM EDT
Astronomical Twilight 5:38 AM EDT 9:18 PM EDT
Moon No Moon Rise 12:58 PM EDT (8/16)
Length of Visible Light 13h 46m
Length of Day
12h 58m
Waning Gibbous, 59% of the Moon is Illuminated
Aug 16
Waning Gibbous
Aug 17
Last Quarter
Aug 25
New
Sep 2
First Quarter
Sep 8
Full

Hourly Weather History & Observations

Time (EDT) Temp. Heat Index Dew Point Humidity Pressure Visibility Wind Dir Wind Speed Gust Speed Precip Events Conditions
1:53 AM 84.0 °F 94.8 °F 78.1 °F 82% 30.02 in 10.0 mi East 9.2 mph - N/A   Clear
2:53 AM 84.9 °F 96.6 °F 78.1 °F 80% 29.99 in 10.0 mi SE 6.9 mph - N/A   Clear
3:53 AM 84.0 °F 92.6 °F 75.9 °F 76% 29.99 in 10.0 mi SSE 8.1 mph - N/A   Clear
4:53 AM 84.0 °F 91.9 °F 75.0 °F 74% 30.01 in 10.0 mi SSE 6.9 mph - N/A   Clear
5:53 AM 84.0 °F 92.6 °F 75.9 °F 76% 30.03 in 10.0 mi ESE 3.5 mph - N/A   Clear
6:53 AM 82.9 °F 91.8 °F 77.0 °F 82% 30.05 in 10.0 mi Calm Calm - N/A   Clear
7:53 AM 84.9 °F 95.3 °F 77.0 °F 77% 30.06 in 10.0 mi Calm Calm - N/A   Clear
8:53 AM 84.9 °F 94.1 °F 75.9 °F 74% 30.08 in 10.0 mi Variable 3.5 mph - N/A   Clear
9:53 AM 89.1 °F 101.4 °F 77.0 °F 67% 30.09 in 10.0 mi Variable 4.6 mph - N/A   Clear
10:53 AM 90.0 °F 104.5 °F 78.1 °F 68% 30.11 in 10.0 mi Variable 4.6 mph - N/A   Clear
11:53 AM 91.0 °F 104.2 °F 77.0 °F 63% 30.11 in 10.0 mi South 6.9 mph - N/A   Clear
12:53 PM 90.0 °F 104.5 °F 78.1 °F 68% 30.09 in 9.0 mi SSE 6.9 mph - N/A   Partly Cloudy
1:53 PM 91.0 °F 107.6 °F 79.0 °F 68% 30.08 in 9.0 mi Variable 4.6 mph - N/A   Clear
2:53 PM 91.9 °F 107.3 °F 78.1 °F 64% 30.07 in 9.0 mi Variable 3.5 mph - N/A   Clear
3:53 PM 91.0 °F 104.2 °F 77.0 °F 63% 30.07 in 9.0 mi SE 4.6 mph - N/A   Clear
4:53 PM 90.0 °F 102.5 °F 77.0 °F 65% 30.06 in 7.0 mi SSE 5.8 mph - N/A   Clear
5:53 PM 89.1 °F 100.2 °F 75.9 °F 65% 30.07 in 7.0 mi South 5.8 mph - N/A   Clear
6:53 PM 89.1 °F 100.2 °F 75.9 °F 65% 30.08 in 9.0 mi ENE 5.8 mph - N/A   Partly Cloudy
7:53 PM 88.0 °F 98.5 °F 75.9 °F 67% 30.08 in 9.0 mi NE 5.8 mph - N/A   Clear
8:53 PM 88.0 °F 100.2 °F 77.0 °F 70% 30.09 in 10.0 mi NE 5.8 mph - N/A   Scattered Clouds
9:03 PM 88.0 °F 98.5 °F 75.9 °F 67% 30.09 in 10.0 mi NE 8.1 mph - N/A   Mostly Cloudy
9:14 PM 88.0 °F 98.5 °F 75.9 °F 67% 30.09 in 10.0 mi NE 13.8 mph 17.3 mph N/A   Overcast
9:49 PM 86.0 °F 99.3 °F 78.8 °F 79% 30.09 in 10.0 mi NNE 6.9 mph - 0.00 in   Mostly Cloudy
9:53 PM 84.9 °F 97.5 °F 79.0 °F 82% 30.09 in 10.0 mi East 5.8 mph - 0.00 in   Mostly Cloudy
10:03 PM 87.1 °F 97.3 °F 75.9 °F 69% 30.08 in 10.0 mi East 8.1 mph - N/A   Partly Cloudy
10:53 PM 86.0 °F 96.0 °F 75.9 °F 72% 30.09 in 10.0 mi East 5.8 mph - N/A   Clear
11:53 PM 86.0 °F 96.9 °F 77.0 °F 74% 30.09 in 10.0 mi East 5.8 mph - N/A   Partly Cloudy